User: anonymous   Login
Location: Unspecified
(0.0000°N, 0.0000°E)
Time: 20:43:43
(UTC+00:00)
Language:

UFO 11 (USA 174) - Orbit

View from above orbital plane
View from above orbital plane
View from above satellite
View from above satellite

Ground track
Ground track

The orbit data is extracted from the following two-line orbital elements,

1 28117U 03057A   21136.70509764 -.00000088  00000-0  00000-0 0  9992
2 28117   6.4599  37.8141 0006684  14.3578 151.1610  1.00271122 63820
Epoch (UTC): 16 May 2021 16:55:20
Eccentricity: 0.0006684
inclination: 6.4599°
perigee height: 35758 km
apogee height: 35814 km
right ascension of ascending node: 37.8141°
argument of perigee: 14.3578°
revolutions per day: 1.00271122
mean anomaly at epoch: 151.1610°
orbit number at epoch: 6382

The dashed part of the orbit path shows where the satellite is in the earth's shadow,  

DLR